Discarica di Monteschiantello Fano (PU) (lat. 43.789272 - lon. 13.063131) Ora solare
Ultimo aggiornamento: 23/10/2019 18:46:38

Temperatura (°C) - Valori minimi, medi e massimi delle ultime 72 ore


Precipitazione totale (mm) - Valori delle ultime 72 ore


Velocità del vento (m/s) - Valori minimi, medi e massimi delle ultime 72 ore


Ultimi valori disponibili

GrandezzaUltimo valore rilevatoTrendData rilevamento
Temperatura med. (°C)16,68 23/10/2019 17:00:00
Temperatura min. (°C)16,30 23/10/2019 17:00:00
Temperatura max. (°C)17,08 23/10/2019 17:00:00
Umidità relativa med. (%)94,68 23/10/2019 17:00:00
Umidità relativa min. (%)91,97 23/10/2019 17:00:00
Umidità relativa max. (%)97,12 23/10/2019 17:00:00
Pressione atmosferica med. (hPa)1006,52 23/10/2019 17:00:00
Radiazione netta med. (W/m^2)661,85 23/10/2019 17:00:00
Radiazione netta min. (W/m^2)161,49 23/10/2019 17:00:00
Radiazione netta max. (W/m^2)763,22 23/10/2019 17:00:00
Velocità vento med. (m/s)3,99 23/10/2019 17:00:00
Velocità vento min. (m/s)2,21 23/10/2019 17:00:00
Velocità vento max. (m/s)5,94 23/10/2019 17:00:00
Direzione vento (gradi)121,72 23/10/2019 17:00:00
Precipitazione totale (mm)0,00 23/10/2019 17:00:00
Contenuto idrico terreno Med. (%)7,11 23/10/2019 17:00:00
Contenuto idrico terreno Min. (%)6,15 23/10/2019 17:00:00
Contenuto idrico terreno Max. (%)7,69 23/10/2019 17:00:00
Radiazione globale med. (W/m^2)64,77 23/10/2019 17:00:00
Radiazione globale min. (W/m^2)10,80 23/10/2019 17:00:00
Radiazione globale max. (W/m^2)142,71 23/10/2019 17:00:00
Temperatura suolo med. (°C)18,55 23/10/2019 17:00:00
Temperatura suolo min. (°C)18,13 23/10/2019 17:00:00
Temperatura suolo max. (°C)19,02 23/10/2019 17:00:00

Caricamento in corso...

..

...